Time,TemperatureF,DewpointF,PressureIn,WindDirection,WindDirectionDegrees,WindSpeedMPH,WindSpeedGustMPH,Humidity,HourlyPrecipIn,Conditions,Clouds,dailyrainin,SoftwareType,DateUTC
2013-01-31 00:01:00,57.9,52.8,29.03,North,0,0.0,0.0,83,0.00,,---,0.00,VWS V14.00,2013-01-31 05:01:00,
2013-01-31 00:02:00,58.1,53.0,29.03,North,0,0.0,0.0,83,0.00,,---,0.00,VWS V14.00,2013-01-31 05:02:00,
2013-01-31 00:03:00,58.1,53.0,29.03,North,0,0.0,0.0,83,0.00,,---,0.00,VWS V14.00,2013-01-31 05:03:00,
2013-01-31 00:04:00,58.1,53.0,29.03,North,0,0.0,0.0,83,0.00,,---,0.00,VWS V14.00,2013-01-31 05:04:00,
2013-01-31 00:09:00,58.3,52.8,29.03,North,0,0.0,0.0,82,0.00,,---,0.00,VWS V14.00,2013-01-31 05:09:00,
2013-01-31 00:14:00,58.5,52.7,29.03,North,0,0.0,0.0,81,0.00,,---,0.00,VWS V14.00,2013-01-31 05:14:00,
2013-01-31 00:19:00,58.5,52.3,29.03,North,0,0.0,0.0,80,0.00,,---,0.00,VWS V14.00,2013-01-31 05:19:00,
2013-01-31 00:25:00,58.5,52.3,29.03,North,0,0.0,0.0,80,0.00,,---,0.00,VWS V14.00,2013-01-31 05:25:00,
2013-01-31 00:30:00,58.5,52.3,29.03,North,0,0.0,0.0,80,0.00,,---,0.00,VWS V14.00,2013-01-31 05:30:00,
2013-01-31 00:35:00,58.5,52.7,29.00,North,0,0.0,0.0,81,0.00,,---,0.00,VWS V14.00,2013-01-31 05:35:00,
2013-01-31 00:40:00,58.5,53.0,29.00,North,0,0.0,0.0,82,0.00,,---,0.00,VWS V14.00,2013-01-31 05:40:00,
2013-01-31 00:46:00,58.5,53.0,29.00,North,0,0.0,0.0,82,0.00,,---,0.00,VWS V14.00,2013-01-31 05:46:00,
2013-01-31 00:51:00,58.5,53.0,29.00,North,0,0.0,0.0,82,0.00,,---,0.00,VWS V14.00,2013-01-31 05:51:00,
2013-01-31 00:57:00,58.6,53.2,29.00,North,0,0.0,0.0,82,0.00,,---,0.00,VWS V14.00,2013-01-31 05:57:00,
2013-01-31 01:02:00,58.6,52.8,29.00,North,0,0.0,0.0,81,0.00,,---,0.00,VWS V14.00,2013-01-31 06:02:00,
2013-01-31 01:07:00,58.6,52.8,29.00,North,0,0.0,0.0,81,0.00,,---,0.00,VWS V14.00,2013-01-31 06:07:00,
2013-01-31 01:12:00,58.8,53.0,29.00,North,0,0.0,0.0,81,0.00,,---,0.00,VWS V14.00,2013-01-31 06:12:00,
2013-01-31 01:17:00,58.8,53.0,28.97,North,0,0.0,0.0,81,0.00,,---,0.00,VWS V14.00,2013-01-31 06:17:00,
2013-01-31 01:23:00,59.0,52.8,28.97,North,0,0.0,0.0,80,0.00,,---,0.00,VWS V14.00,2013-01-31 06:23:00,
2013-01-31 01:28:00,59.0,52.5,28.97,North,0,0.0,0.0,79,0.00,,---,0.00,VWS V14.00,2013-01-31 06:28:00,
2013-01-31 01:34:00,59.0,52.5,28.94,North,0,0.0,0.0,79,0.00,,---,0.00,VWS V14.00,2013-01-31 06:34:00,
2013-01-31 01:39:00,59.2,52.7,28.94,North,0,0.0,0.0,79,0.00,,---,0.00,VWS V14.00,2013-01-31 06:39:00,
2013-01-31 01:44:00,59.2,52.3,28.94,North,0,0.0,0.0,78,0.00,,---,0.00,VWS V14.00,2013-01-31 06:44:00,
2013-01-31 01:49:00,59.2,52.3,28.94,North,0,0.0,0.0,78,0.00,,---,0.00,VWS V14.00,2013-01-31 06:49:00,
2013-01-31 01:54:00,59.2,52.7,28.94,North,0,0.0,0.0,79,0.00,,---,0.00,VWS V14.00,2013-01-31 06:54:00,
2013-01-31 02:00:00,59.2,53.0,28.94,North,0,0.0,0.0,80,0.00,,---,0.00,VWS V14.00,2013-01-31 07:00:00,
2013-01-31 02:06:00,59.2,53.4,28.91,North,0,0.0,0.0,81,0.00,,---,0.00,VWS V14.00,2013-01-31 07:06:00,
2013-01-31 02:11:00,59.2,53.7,28.91,North,0,0.0,0.0,82,0.00,,---,0.00,VWS V14.00,2013-01-31 07:11:00,
2013-01-31 02:16:00,59.2,53.7,28.91,North,0,0.0,0.0,82,0.00,,---,0.00,VWS V14.00,2013-01-31 07:16:00,
2013-01-31 02:21:00,59.2,53.7,28.91,North,0,0.0,0.0,82,0.00,,---,0.00,VWS V14.00,2013-01-31 07:21:00,
2013-01-31 02:26:00,59.4,54.2,28.91,North,0,0.0,0.0,83,0.00,,---,0.00,VWS V14.00,2013-01-31 07:26:00,
2013-01-31 02:32:00,59.5,54.0,28.88,North,0,0.0,0.0,82,0.00,,---,0.00,VWS V14.00,2013-01-31 07:32:00,
2013-01-31 02:37:00,59.5,54.0,28.88,North,0,0.0,0.0,82,0.00,,---,0.00,VWS V14.00,2013-01-31 07:37:00,
2013-01-31 02:42:00,59.7,53.9,28.88,North,0,0.0,0.0,81,0.00,,---,0.00,VWS V14.00,2013-01-31 07:42:00,
2013-01-31 02:47:00,59.9,53.7,28.85,North,0,0.0,0.0,80,0.00,,---,0.00,VWS V14.00,2013-01-31 07:47:00,
2013-01-31 02:53:00,59.9,53.4,28.85,North,0,0.0,0.0,79,0.00,,---,0.00,VWS V14.00,2013-01-31 07:53:00,
2013-01-31 02:58:00,59.9,53.4,28.85,North,0,0.0,0.0,79,0.00,,---,0.00,VWS V14.00,2013-01-31 07:58:00,
2013-01-31 03:03:00,59.9,53.4,28.85,North,0,0.0,0.0,79,0.00,,---,0.00,VWS V14.00,2013-01-31 08:03:00,
2013-01-31 03:08:00,59.9,53.4,28.85,North,0,0.0,0.0,79,0.00,,---,0.00,VWS V14.00,2013-01-31 08:08:00,
2013-01-31 03:14:00,59.9,53.4,28.85,North,0,0.0,0.0,79,0.00,,---,0.00,VWS V14.00,2013-01-31 08:14:00,
2013-01-31 03:19:00,59.7,53.2,28.82,North,0,0.0,0.0,79,0.00,,---,0.00,VWS V14.00,2013-01-31 08:19:00,
2013-01-31 03:24:00,59.7,52.9,28.82,North,0,0.0,0.0,78,0.00,,---,0.00,VWS V14.00,2013-01-31 08:24:00,
2013-01-31 03:30:00,59.9,52.7,28.82,North,0,0.0,0.0,77,0.00,,---,0.00,VWS V14.00,2013-01-31 08:30:00,
2013-01-31 03:35:00,60.1,52.5,28.79,North,0,0.0,0.0,76,0.00,,---,0.00,VWS V14.00,2013-01-31 08:35:00,
2013-01-31 03:41:00,60.1,52.5,28.79,North,0,0.0,0.0,76,0.00,,---,0.00,VWS V14.00,2013-01-31 08:41:00,
2013-01-31 03:46:00,60.1,52.5,28.79,North,0,0.0,0.0,76,0.00,,---,0.00,VWS V14.00,2013-01-31 08:46:00,
2013-01-31 03:51:00,60.1,52.5,28.79,North,0,0.0,0.0,76,0.00,,---,0.00,VWS V14.00,2013-01-31 08:51:00,
2013-01-31 03:56:00,60.1,52.9,28.79,North,0,0.0,0.0,77,0.00,,---,0.00,VWS V14.00,2013-01-31 08:56:00,
2013-01-31 04:01:00,60.1,52.9,28.76,North,0,0.0,0.0,77,0.00,,---,0.00,VWS V14.00,2013-01-31 09:01:00,
2013-01-31 04:07:00,60.1,52.9,28.76,North,0,0.0,0.0,77,0.00,,---,0.00,VWS V14.00,2013-01-31 09:07:00,
2013-01-31 04:12:00,60.1,52.9,28.76,North,0,0.0,0.0,77,0.00,,---,0.00,VWS V14.00,2013-01-31 09:12:00,
2013-01-31 04:17:00,59.9,53.0,28.73,North,0,0.0,0.0,78,0.00,,---,0.00,VWS V14.00,2013-01-31 09:17:00,
2013-01-31 04:22:00,59.9,53.4,28.73,North,0,0.0,0.0,79,0.00,,---,0.00,VWS V14.00,2013-01-31 09:22:00,
2013-01-31 04:28:00,59.7,53.2,28.73,North,0,0.0,0.0,79,0.00,,---,0.00,VWS V14.00,2013-01-31 09:28:00,
2013-01-31 04:33:00,59.7,53.5,28.73,North,0,0.0,0.0,80,0.00,,---,0.00,VWS V14.00,2013-01-31 09:33:00,
2013-01-31 04:38:00,59.5,53.7,28.73,North,0,0.0,0.0,81,0.00,,---,0.00,VWS V14.00,2013-01-31 09:38:00,
2013-01-31 04:44:00,59.4,53.5,28.73,North,0,0.0,0.0,81,0.00,,---,0.00,VWS V14.00,2013-01-31 09:44:00,
2013-01-31 04:49:00,59.7,53.5,28.73,North,0,0.0,0.0,80,0.00,,---,0.00,VWS V14.00,2013-01-31 09:49:00,
2013-01-31 04:54:00,59.5,53.4,28.73,North,0,0.0,0.0,80,0.00,,---,0.00,VWS V14.00,2013-01-31 09:54:00,
2013-01-31 04:59:00,59.5,53.4,28.73,North,0,0.0,0.0,80,0.00,,---,0.00,VWS V14.00,2013-01-31 09:59:00,
2013-01-31 05:05:00,59.4,53.5,28.70,North,0,0.0,0.0,81,0.00,,---,0.00,VWS V14.00,2013-01-31 10:05:00,
2013-01-31 05:10:00,59.4,53.5,28.70,North,0,0.0,0.0,81,0.00,,---,0.00,VWS V14.00,2013-01-31 10:10:00,
2013-01-31 05:16:00,59.5,53.7,28.70,North,0,0.0,0.0,81,0.00,,---,0.00,VWS V14.00,2013-01-31 10:16:00,
2013-01-31 05:21:00,59.5,54.0,28.70,North,0,0.0,0.0,82,0.00,,---,0.00,VWS V14.00,2013-01-31 10:21:00,
2013-01-31 05:26:00,59.4,54.2,28.70,North,0,0.0,0.0,83,0.00,,---,0.00,VWS V14.00,2013-01-31 10:26:00,
2013-01-31 05:31:00,59.4,54.2,28.67,North,0,0.0,0.0,83,0.00,,---,0.00,VWS V14.00,2013-01-31 10:31:00,
2013-01-31 05:36:00,59.2,54.4,28.67,North,0,0.0,0.0,84,0.00,,---,0.00,VWS V14.00,2013-01-31 10:36:00,
2013-01-31 05:42:00,59.2,54.4,28.67,North,0,0.0,0.0,84,0.00,,---,0.00,VWS V14.00,2013-01-31 10:42:00,
2013-01-31 05:47:00,59.4,54.5,28.61,North,0,0.0,0.0,84,0.00,,---,0.00,VWS V14.00,2013-01-31 10:47:00,
2013-01-31 05:52:00,59.4,54.5,28.61,North,0,0.0,0.0,84,0.00,,---,0.00,VWS V14.00,2013-01-31 10:52:00,
2013-01-31 05:58:00,59.4,54.9,28.61,North,0,0.0,0.0,85,0.00,,---,0.00,VWS V14.00,2013-01-31 10:58:00,
2013-01-31 06:03:00,59.4,55.2,28.61,North,0,0.0,0.0,86,0.00,,---,0.00,VWS V14.00,2013-01-31 11:03:00,
2013-01-31 06:08:00,59.4,55.2,28.61,North,0,0.0,0.0,86,0.00,,---,0.00,VWS V14.00,2013-01-31 11:08:00,
2013-01-31 06:13:00,59.5,55.3,28.61,North,0,0.0,0.0,86,0.00,,---,0.00,VWS V14.00,2013-01-31 11:13:00,
2013-01-31 06:19:00,59.5,55.3,28.64,North,0,0.0,0.0,86,0.00,,---,0.00,VWS V14.00,2013-01-31 11:19:00,
2013-01-31 06:24:00,59.5,55.3,28.64,North,0,0.0,0.0,86,0.00,,---,0.00,VWS V14.00,2013-01-31 11:24:00,
2013-01-31 06:29:00,59.5,55.3,28.64,North,0,0.0,0.0,86,0.00,,---,0.00,VWS V14.00,2013-01-31 11:29:00,
2013-01-31 06:34:00,59.5,55.3,28.64,North,0,0.0,0.0,86,0.00,,---,0.00,VWS V14.00,2013-01-31 11:34:00,
2013-01-31 06:40:00,59.2,54.7,28.64,North,0,0.0,0.0,85,0.00,,---,0.00,VWS V14.00,2013-01-31 11:40:00,
2013-01-31 06:46:00,58.6,53.5,28.64,North,0,0.0,0.0,83,0.00,,---,0.00,VWS V14.00,2013-01-31 11:46:00,
2013-01-31 06:51:00,58.1,52.3,28.64,North,0,0.0,0.0,81,0.00,,---,0.00,VWS V14.00,2013-01-31 11:51:00,
2013-01-31 06:56:00,57.9,52.1,28.64,North,0,0.0,0.0,81,0.00,,---,0.00,VWS V14.00,2013-01-31 11:56:00,
2013-01-31 07:01:00,57.9,52.1,28.64,North,0,0.0,0.0,81,0.00,,---,0.00,VWS V14.00,2013-01-31 12:01:00,
2013-01-31 07:06:00,57.7,52.0,28.64,North,0,0.0,0.0,81,0.00,,---,0.00,VWS V14.00,2013-01-31 12:06:00,
2013-01-31 07:12:00,57.6,51.5,28.64,North,0,0.0,0.0,80,0.00,,---,0.00,VWS V14.00,2013-01-31 12:12:00,
2013-01-31 07:17:00,57.6,51.5,28.64,North,0,0.0,0.0,80,0.00,,---,0.00,VWS V14.00,2013-01-31 12:17:00,
2013-01-31 07:22:00,57.6,51.1,28.64,North,0,0.0,0.0,79,0.00,,---,0.00,VWS V14.00,2013-01-31 12:22:00,
2013-01-31 07:27:00,57.4,50.9,28.64,North,0,0.0,0.0,79,0.00,,---,0.00,VWS V14.00,2013-01-31 12:27:00,
2013-01-31 07:33:00,57.2,50.4,28.59,North,0,0.0,0.0,78,0.00,,---,0.00,VWS V14.00,2013-01-31 12:33:00,
2013-01-31 07:38:00,57.2,50.4,28.59,North,0,0.0,0.0,78,0.00,,---,0.00,VWS V14.00,2013-01-31 12:38:00,
2013-01-31 07:43:00,57.0,49.9,28.59,North,0,0.0,0.0,77,0.00,,---,0.00,VWS V14.00,2013-01-31 12:43:00,
2013-01-31 07:48:00,56.8,49.7,28.59,North,0,0.0,0.0,77,0.00,,---,0.00,VWS V14.00,2013-01-31 12:48:00,
2013-01-31 07:54:00,56.7,49.2,28.59,North,0,0.0,0.0,76,0.00,,---,0.00,VWS V14.00,2013-01-31 12:54:00,
2013-01-31 07:59:00,56.7,48.8,28.59,North,0,0.0,0.0,75,0.00,,---,0.00,VWS V14.00,2013-01-31 12:59:00,
2013-01-31 08:04:00,56.7,48.5,28.59,North,0,0.0,0.0,74,0.00,,---,0.00,VWS V14.00,2013-01-31 13:04:00,
2013-01-31 08:09:00,56.8,47.9,28.59,North,0,0.0,0.0,72,0.00,,---,0.00,VWS V14.00,2013-01-31 13:09:00,
2013-01-31 08:15:00,57.2,47.9,28.59,North,0,0.0,0.0,71,0.00,,---,0.00,VWS V14.00,2013-01-31 13:15:00,
2013-01-31 08:21:00,57.2,47.5,28.59,North,0,0.0,0.0,70,0.00,,---,0.00,VWS V14.00,2013-01-31 13:21:00,
2013-01-31 08:26:00,57.4,46.5,28.59,North,0,0.0,0.0,67,0.00,,---,0.00,VWS V14.00,2013-01-31 13:26:00,
2013-01-31 08:31:00,57.4,46.1,28.59,North,0,0.0,0.0,66,0.00,,---,0.00,VWS V14.00,2013-01-31 13:31:00,
2013-01-31 08:36:00,57.4,45.3,28.59,North,0,0.0,0.0,64,0.00,,---,0.00,VWS V14.00,2013-01-31 13:36:00,
2013-01-31 08:41:00,57.4,44.9,28.59,North,0,0.0,0.0,63,0.00,,---,0.00,VWS V14.00,2013-01-31 13:41:00,
2013-01-31 08:47:00,57.4,44.5,28.59,North,0,0.0,0.0,62,0.00,,---,0.00,VWS V14.00,2013-01-31 13:47:00,
2013-01-31 08:53:00,57.2,44.3,28.59,North,0,0.0,0.0,62,0.00,,---,0.00,VWS V14.00,2013-01-31 13:53:00,
2013-01-31 08:59:00,57.0,44.1,28.59,North,0,0.0,0.0,62,0.00,,---,0.00,VWS V14.00,2013-01-31 13:59:00,
2013-01-31 09:05:00,57.0,44.6,28.59,North,0,0.0,0.0,63,0.00,,---,0.00,VWS V14.00,2013-01-31 14:05:00,
2013-01-31 09:11:00,57.0,43.7,28.59,North,0,0.0,0.0,61,0.00,,---,0.00,VWS V14.00,2013-01-31 14:11:00,
2013-01-31 09:16:00,56.8,43.5,28.59,North,0,0.0,0.0,61,0.00,,---,0.00,VWS V14.00,2013-01-31 14:16:00,
2013-01-31 09:21:00,56.8,44.0,28.59,North,0,0.0,0.0,62,0.00,,---,0.00,VWS V14.00,2013-01-31 14:21:00,
2013-01-31 09:26:00,56.7,43.8,28.59,North,0,0.0,0.0,62,0.00,,---,0.00,VWS V14.00,2013-01-31 14:26:00,
2013-01-31 09:32:00,51.8,32.2,28.67,North,0,0.0,0.0,47,0.00,,---,0.00,VWS V14.00,2013-01-31 14:32:00,
2013-01-31 09:37:00,48.0,31.7,28.67,North,0,0.0,0.0,53,0.00,,---,0.00,VWS V14.00,2013-01-31 14:37:00,
2013-01-31 09:42:00,45.9,31.9,28.67,North,0,0.0,0.0,58,0.00,,---,0.00,VWS V14.00,2013-01-31 14:42:00,
2013-01-31 09:48:00,45.0,31.9,28.67,North,0,0.0,0.0,60,0.00,,---,0.00,VWS V14.00,2013-01-31 14:48:00,
2013-01-31 09:53:00,44.2,32.5,28.67,North,0,0.0,0.0,63,0.00,,---,0.00,VWS V14.00,2013-01-31 14:53:00,
2013-01-31 09:58:00,44.1,31.1,28.67,North,0,0.0,0.0,60,0.00,,---,0.00,VWS V14.00,2013-01-31 14:58:00,
2013-01-31 10:03:00,43.7,30.3,28.70,North,0,0.0,0.0,59,0.00,,---,0.00,VWS V14.00,2013-01-31 15:03:00,
2013-01-31 10:09:00,43.9,31.3,28.70,North,0,0.0,0.0,61,0.00,,---,0.00,VWS V14.00,2013-01-31 15:09:00,
2013-01-31 10:15:00,44.4,31.8,28.70,North,0,0.0,0.0,61,0.00,,---,0.00,VWS V14.00,2013-01-31 15:15:00,
2013-01-31 10:20:00,45.5,33.7,28.70,North,0,0.0,0.0,63,0.00,,---,0.00,VWS V14.00,2013-01-31 15:20:00,
2013-01-31 10:25:00,46.2,32.7,28.70,North,0,0.0,0.0,59,0.00,,---,0.00,VWS V14.00,2013-01-31 15:25:00,
2013-01-31 10:30:00,46.4,31.6,28.70,North,0,0.0,0.0,56,0.00,,---,0.00,VWS V14.00,2013-01-31 15:30:00,
2013-01-31 10:35:00,46.6,29.9,28.73,North,0,0.0,0.0,52,0.00,,---,0.00,VWS V14.00,2013-01-31 15:35:00,
2013-01-31 10:40:00,46.4,29.8,28.73,North,0,0.0,0.0,52,0.00,,---,0.00,VWS V14.00,2013-01-31 15:40:00,
2013-01-31 10:46:00,46.0,28.5,28.73,North,0,0.0,0.0,50,0.00,,---,0.00,VWS V14.00,2013-01-31 15:46:00,
2013-01-31 10:51:00,46.4,29.3,28.73,North,0,0.0,0.0,51,0.00,,---,0.00,VWS V14.00,2013-01-31 15:51:00,
2013-01-31 10:56:00,46.8,28.1,28.73,North,0,0.0,0.0,48,0.00,,---,0.00,VWS V14.00,2013-01-31 15:56:00,
2013-01-31 11:02:00,46.4,28.3,28.76,North,0,0.0,0.0,49,0.00,,---,0.00,VWS V14.00,2013-01-31 16:02:00,
2013-01-31 11:07:00,46.0,28.0,28.76,North,0,0.0,0.0,49,0.00,,---,0.00,VWS V14.00,2013-01-31 16:07:00,
2013-01-31 11:12:00,45.9,27.8,28.76,North,0,0.0,0.0,49,0.00,,---,0.00,VWS V14.00,2013-01-31 16:12:00,
2013-01-31 11:17:00,45.1,26.6,28.76,North,0,0.0,0.0,48,0.00,,---,0.00,VWS V14.00,2013-01-31 16:17:00,
2013-01-31 11:23:00,45.3,26.8,28.76,North,0,0.0,0.0,48,0.00,,---,0.00,VWS V14.00,2013-01-31 16:23:00,
2013-01-31 11:28:00,45.1,26.1,28.76,North,0,0.0,0.0,47,0.00,,---,0.00,VWS V14.00,2013-01-31 16:28:00,
2013-01-31 11:33:00,45.0,26.0,28.76,North,0,0.0,0.0,47,0.00,,---,0.00,VWS V14.00,2013-01-31 16:33:00,
2013-01-31 11:38:00,45.5,26.5,28.76,North,0,0.0,0.0,47,0.00,,---,0.00,VWS V14.00,2013-01-31 16:38:00,
2013-01-31 11:44:00,46.6,25.9,28.76,North,0,0.0,0.0,44,0.00,,---,0.00,VWS V14.00,2013-01-31 16:44:00,
2013-01-31 11:50:00,46.9,25.6,28.76,North,0,0.0,0.0,43,0.00,,---,0.00,VWS V14.00,2013-01-31 16:50:00,
2013-01-31 11:55:00,46.2,23.2,28.76,North,0,0.0,0.0,40,0.00,,---,0.00,VWS V14.00,2013-01-31 16:55:00,
2013-01-31 12:00:00,46.0,24.2,28.76,North,0,0.0,0.0,42,0.00,,---,0.00,VWS V14.00,2013-01-31 17:00:00,
2013-01-31 12:05:00,46.0,24.2,28.76,North,0,0.0,0.0,42,0.00,,---,0.00,VWS V14.00,2013-01-31 17:05:00,
2013-01-31 12:10:00,47.3,25.4,28.76,North,0,0.0,0.0,42,0.00,,---,0.00,VWS V14.00,2013-01-31 17:10:00,
2013-01-31 12:16:00,48.4,25.2,28.76,North,0,0.0,0.0,40,0.00,,---,0.00,VWS V14.00,2013-01-31 17:16:00,
2013-01-31 12:21:00,47.8,23.5,28.76,North,0,0.0,0.0,38,0.00,,---,0.00,VWS V14.00,2013-01-31 17:21:00,
2013-01-31 12:26:00,47.3,23.6,28.76,North,0,0.0,0.0,39,0.00,,---,0.00,VWS V14.00,2013-01-31 17:26:00,
2013-01-31 12:31:00,46.6,21.7,28.79,North,0,0.0,0.0,37,0.00,,---,0.00,VWS V14.00,2013-01-31 17:31:00,
2013-01-31 12:37:00,45.9,21.7,28.79,North,0,0.0,0.0,38,0.00,,---,0.00,VWS V14.00,2013-01-31 17:37:00,
2013-01-31 12:42:00,45.3,21.2,28.79,North,0,0.0,0.0,38,0.00,,---,0.00,VWS V14.00,2013-01-31 17:42:00,
2013-01-31 12:47:00,45.3,21.2,28.79,North,0,0.0,0.0,38,0.00,,---,0.00,VWS V14.00,2013-01-31 17:47:00,
2013-01-31 12:53:00,45.5,21.4,28.79,North,0,0.0,0.0,38,0.00,,---,0.00,VWS V14.00,2013-01-31 17:53:00,
2013-01-31 12:58:00,46.2,21.4,28.79,North,0,0.0,0.0,37,0.00,,---,0.00,VWS V14.00,2013-01-31 17:58:00,
2013-01-31 13:03:00,46.4,20.9,28.79,North,0,0.0,0.0,36,0.00,,---,0.00,VWS V14.00,2013-01-31 18:03:00,
2013-01-31 13:08:00,46.8,19.9,28.79,North,0,0.0,0.0,34,0.00,,---,0.00,VWS V14.00,2013-01-31 18:08:00,
2013-01-31 13:13:00,45.3,18.6,28.79,North,0,0.0,0.0,34,0.00,,---,0.00,VWS V14.00,2013-01-31 18:13:00,
2013-01-31 13:19:00,45.7,18.2,28.82,North,0,0.0,0.0,33,0.00,,---,0.00,VWS V14.00,2013-01-31 18:19:00,
2013-01-31 13:25:00,46.6,17.6,28.82,North,0,0.0,0.0,31,0.00,,---,0.00,VWS V14.00,2013-01-31 18:25:00,
2013-01-31 13:30:00,46.4,17.4,28.82,North,0,0.0,0.0,31,0.00,,---,0.00,VWS V14.00,2013-01-31 18:30:00,
2013-01-31 13:35:00,46.0,17.1,28.82,North,0,0.0,0.0,31,0.00,,---,0.00,VWS V14.00,2013-01-31 18:35:00,
2013-01-31 13:40:00,46.0,16.4,28.82,North,0,0.0,0.0,30,0.00,,---,0.00,VWS V14.00,2013-01-31 18:40:00,
2013-01-31 13:45:00,46.2,16.5,28.82,North,0,0.0,0.0,30,0.00,,---,0.00,VWS V14.00,2013-01-31 18:45:00,
2013-01-31 13:51:00,45.9,16.2,28.85,North,0,0.0,0.0,30,0.00,,---,0.00,VWS V14.00,2013-01-31 18:51:00,
2013-01-31 13:56:00,45.5,15.1,28.85,North,0,0.0,0.0,29,0.00,,---,0.00,VWS V14.00,2013-01-31 18:56:00,
2013-01-31 14:01:00,45.5,15.9,28.85,North,0,0.0,0.0,30,0.00,,---,0.00,VWS V14.00,2013-01-31 19:01:00,
2013-01-31 14:06:00,45.3,14.9,28.85,North,0,0.0,0.0,29,0.00,,---,0.00,VWS V14.00,2013-01-31 19:06:00,
2013-01-31 14:12:00,45.1,14.8,28.85,North,0,0.0,0.0,29,0.00,,---,0.00,VWS V14.00,2013-01-31 19:12:00,
2013-01-31 14:17:00,45.1,14.8,28.85,North,0,0.0,0.0,29,0.00,,---,0.00,VWS V14.00,2013-01-31 19:17:00,
2013-01-31 14:22:00,44.6,14.3,28.85,North,0,0.0,0.0,29,0.00,,---,0.00,VWS V14.00,2013-01-31 19:22:00,
2013-01-31 14:28:00,44.4,14.2,28.85,North,0,0.0,0.0,29,0.00,,---,0.00,VWS V14.00,2013-01-31 19:28:00,
2013-01-31 14:33:00,44.2,14.0,28.88,North,0,0.0,0.0,29,0.00,,---,0.00,VWS V14.00,2013-01-31 19:33:00,
2013-01-31 14:38:00,44.2,14.0,28.88,North,0,0.0,0.0,29,0.00,,---,0.00,VWS V14.00,2013-01-31 19:38:00,
2013-01-31 14:43:00,43.7,12.8,28.88,North,0,0.0,0.0,28,0.00,,---,0.00,VWS V14.00,2013-01-31 19:43:00,
2013-01-31 14:49:00,43.7,12.8,28.88,North,0,0.0,0.0,28,0.00,,---,0.00,VWS V14.00,2013-01-31 19:49:00,
2013-01-31 14:54:00,43.5,13.4,28.88,North,0,0.0,0.0,29,0.00,,---,0.00,VWS V14.00,2013-01-31 19:54:00,
2013-01-31 15:00:00,43.5,12.6,28.88,North,0,0.0,0.0,28,0.00,,---,0.00,VWS V14.00,2013-01-31 20:00:00,
2013-01-31 15:05:00,43.5,13.4,28.91,North,0,0.0,0.0,29,0.00,,---,0.00,VWS V14.00,2013-01-31 20:05:00,
2013-01-31 15:10:00,43.5,13.4,28.91,North,0,0.0,0.0,29,0.00,,---,0.00,VWS V14.00,2013-01-31 20:10:00,
2013-01-31 15:15:00,43.0,12.1,28.91,North,0,0.0,0.0,28,0.00,,---,0.00,VWS V14.00,2013-01-31 20:15:00,
2013-01-31 15:20:00,41.9,12.0,28.91,North,0,0.0,0.0,29,0.00,,---,0.00,VWS V14.00,2013-01-31 20:20:00,
2013-01-31 15:26:00,41.4,11.5,28.91,North,0,0.0,0.0,29,0.00,,---,0.00,VWS V14.00,2013-01-31 20:26:00,
2013-01-31 15:31:00,41.2,11.4,28.91,North,0,0.0,0.0,29,0.00,,---,0.00,VWS V14.00,2013-01-31 20:31:00,
2013-01-31 15:36:00,41.0,11.2,28.91,North,0,0.0,0.0,29,0.00,,---,0.00,VWS V14.00,2013-01-31 20:36:00,
2013-01-31 15:42:00,41.2,11.4,28.91,North,0,0.0,0.0,29,0.00,,---,0.00,VWS V14.00,2013-01-31 20:42:00,
2013-01-31 15:47:00,41.4,11.5,28.91,North,0,0.0,0.0,29,0.00,,---,0.00,VWS V14.00,2013-01-31 20:47:00,
2013-01-31 15:52:00,41.9,12.0,28.91,North,0,0.0,0.0,29,0.00,,---,0.00,VWS V14.00,2013-01-31 20:52:00,
2013-01-31 15:57:00,41.7,11.8,28.91,North,0,0.0,0.0,29,0.00,,---,0.00,VWS V14.00,2013-01-31 20:57:00,
2013-01-31 16:03:00,41.5,11.7,28.94,North,0,0.0,0.0,29,0.00,,---,0.00,VWS V14.00,2013-01-31 21:03:00,
2013-01-31 16:09:00,41.4,11.5,28.94,North,0,0.0,0.0,29,0.00,,---,0.00,VWS V14.00,2013-01-31 21:09:00,
2013-01-31 16:14:00,41.2,11.4,28.94,North,0,0.0,0.0,29,0.00,,---,0.00,VWS V14.00,2013-01-31 21:14:00,
2013-01-31 16:19:00,40.8,11.0,28.94,North,0,0.0,0.0,29,0.00,,---,0.00,VWS V14.00,2013-01-31 21:19:00,
2013-01-31 16:24:00,40.6,11.6,28.94,North,0,0.0,0.0,30,0.00,,---,0.00,VWS V14.00,2013-01-31 21:24:00,
2013-01-31 16:29:00,40.5,11.5,28.94,North,0,0.0,0.0,30,0.00,,---,0.00,VWS V14.00,2013-01-31 21:29:00,
2013-01-31 16:35:00,40.1,11.2,28.94,North,0,0.0,0.0,30,0.00,,---,0.00,VWS V14.00,2013-01-31 21:35:00,
2013-01-31 16:40:00,39.9,11.0,28.94,North,0,0.0,0.0,30,0.00,,---,0.00,VWS V14.00,2013-01-31 21:40:00,
2013-01-31 16:45:00,39.7,10.9,28.94,North,0,0.0,0.0,30,0.00,,---,0.00,VWS V14.00,2013-01-31 21:45:00,
2013-01-31 16:50:00,39.6,9.9,28.97,North,0,0.0,0.0,29,0.00,,---,0.00,VWS V14.00,2013-01-31 21:50:00,
2013-01-31 16:56:00,39.4,9.8,28.97,North,0,0.0,0.0,29,0.00,,---,0.00,VWS V14.00,2013-01-31 21:56:00,
2013-01-31 17:01:00,39.0,10.2,28.97,North,0,0.0,0.0,30,0.00,,---,0.00,VWS V14.00,2013-01-31 22:01:00,
2013-01-31 17:06:00,38.7,9.9,28.97,North,0,0.0,0.0,30,0.00,,---,0.00,VWS V14.00,2013-01-31 22:06:00,
2013-01-31 17:15:00,37.9,9.3,28.97,North,0,0.0,0.0,30,0.00,,---,0.00,VWS V14.00,2013-01-31 22:15:00,
2013-01-31 17:21:00,37.6,9.0,28.97,North,0,0.0,0.0,30,0.00,,---,0.00,VWS V14.00,2013-01-31 22:21:00,
2013-01-31 17:27:00,37.6,9.0,28.97,North,0,0.0,0.0,30,0.00,,---,0.00,VWS V14.00,2013-01-31 22:27:00,
2013-01-31 17:33:00,37.4,8.8,29.00,North,0,0.0,0.0,30,0.00,,---,0.00,VWS V14.00,2013-01-31 22:33:00,
2013-01-31 17:38:00,37.4,8.8,29.00,North,0,0.0,0.0,30,0.00,,---,0.00,VWS V14.00,2013-01-31 22:38:00,
2013-01-31 17:44:00,37.2,8.6,29.00,North,0,0.0,0.0,30,0.00,,---,0.00,VWS V14.00,2013-01-31 22:44:00,
2013-01-31 17:49:00,37.4,8.8,29.00,North,0,0.0,0.0,30,0.00,,---,0.00,VWS V14.00,2013-01-31 22:49:00,
2013-01-31 17:54:00,37.2,8.6,29.00,North,0,0.0,0.0,30,0.00,,---,0.00,VWS V14.00,2013-01-31 22:54:00,
2013-01-31 17:59:00,36.9,8.3,29.00,North,0,0.0,0.0,30,0.00,,---,0.00,VWS V14.00,2013-01-31 22:59:00,
2013-01-31 18:04:00,36.5,8.0,29.03,North,0,0.0,0.0,30,0.00,,---,0.00,VWS V14.00,2013-01-31 23:04:00,
2013-01-31 18:10:00,36.3,7.9,29.03,North,0,0.0,0.0,30,0.00,,---,0.00,VWS V14.00,2013-01-31 23:10:00,
2013-01-31 18:15:00,36.3,8.6,29.03,North,0,0.0,0.0,31,0.00,,---,0.00,VWS V14.00,2013-01-31 23:15:00,
2013-01-31 18:20:00,36.5,8.8,29.03,North,0,0.0,0.0,31,0.00,,---,0.00,VWS V14.00,2013-01-31 23:20:00,
2013-01-31 18:25:00,36.5,8.8,29.03,North,0,0.0,0.0,31,0.00,,---,0.00,VWS V14.00,2013-01-31 23:25:00,
2013-01-31 18:31:00,36.3,8.6,29.03,North,0,0.0,0.0,31,0.00,,---,0.00,VWS V14.00,2013-01-31 23:31:00,
2013-01-31 18:36:00,36.3,8.6,29.03,North,0,0.0,0.0,31,0.00,,---,0.00,VWS V14.00,2013-01-31 23:36:00,
2013-01-31 18:41:00,36.3,8.6,29.03,North,0,0.0,0.0,31,0.00,,---,0.00,VWS V14.00,2013-01-31 23:41:00,
2013-01-31 18:47:00,36.1,8.4,29.06,North,0,0.0,0.0,31,0.00,,---,0.00,VWS V14.00,2013-01-31 23:47:00,
2013-01-31 18:52:00,36.0,8.3,29.06,North,0,0.0,0.0,31,0.00,,---,0.00,VWS V14.00,2013-01-31 23:52:00,
2013-01-31 18:57:00,35.8,8.1,29.06,North,0,0.0,0.0,31,0.00,,---,0.00,VWS V14.00,2013-01-31 23:57:00,
2013-01-31 19:02:00,35.4,7.8,29.06,North,0,0.0,0.0,31,0.00,,---,0.00,VWS V14.00,2013-02-01 00:02:00,
2013-01-31 19:08:00,35.4,7.8,29.06,North,0,0.0,0.0,31,0.00,,---,0.00,VWS V14.00,2013-02-01 00:08:00,
2013-01-31 19:13:00,35.1,7.5,29.06,North,0,0.0,0.0,31,0.00,,---,0.00,VWS V14.00,2013-02-01 00:13:00,
2013-01-31 19:19:00,34.9,7.3,29.09,North,0,0.0,0.0,31,0.00,,---,0.00,VWS V14.00,2013-02-01 00:19:00,
2013-01-31 19:24:00,34.9,7.3,29.09,North,0,0.0,0.0,31,0.00,,---,0.00,VWS V14.00,2013-02-01 00:24:00,
2013-01-31 19:29:00,34.9,7.3,29.09,North,0,0.0,0.0,31,0.00,,---,0.00,VWS V14.00,2013-02-01 00:29:00,
2013-01-31 19:34:00,34.5,7.0,29.09,North,0,0.0,0.0,31,0.00,,---,0.00,VWS V14.00,2013-02-01 00:34:00,
2013-01-31 19:39:00,34.3,6.9,29.09,North,0,0.0,0.0,31,0.00,,---,0.00,VWS V14.00,2013-02-01 00:39:00,
2013-01-31 19:45:00,34.3,6.9,29.09,North,0,0.0,0.0,31,0.00,,---,0.00,VWS V14.00,2013-02-01 00:45:00,
2013-01-31 19:50:00,34.5,7.0,29.09,North,0,0.0,0.0,31,0.00,,---,0.00,VWS V14.00,2013-02-01 00:50:00,
2013-01-31 19:55:00,34.3,6.9,29.09,North,0,0.0,0.0,31,0.00,,---,0.00,VWS V14.00,2013-02-01 00:55:00,
2013-01-31 20:00:00,34.3,6.9,29.09,North,0,0.0,0.0,31,0.00,,---,0.00,VWS V14.00,2013-02-01 01:00:00,
2013-01-31 20:06:00,34.2,6.7,29.09,North,0,0.0,0.0,31,0.00,,---,0.00,VWS V14.00,2013-02-01 01:06:00,
2013-01-31 20:11:00,34.0,6.5,29.09,North,0,0.0,0.0,31,0.00,,---,0.00,VWS V14.00,2013-02-01 01:11:00,
2013-01-31 20:16:00,33.8,6.4,29.12,North,0,0.0,0.0,31,0.00,,---,0.00,VWS V14.00,2013-02-01 01:16:00,
2013-01-31 20:22:00,34.0,6.5,29.12,North,0,0.0,0.0,31,0.00,,---,0.00,VWS V14.00,2013-02-01 01:22:00,
2013-01-31 20:27:00,33.8,6.4,29.12,North,0,0.0,0.0,31,0.00,,---,0.00,VWS V14.00,2013-02-01 01:27:00,
2013-01-31 20:32:00,33.6,6.2,29.12,North,0,0.0,0.0,31,0.00,,---,0.00,VWS V14.00,2013-02-01 01:32:00,
2013-01-31 20:37:00,33.3,5.9,29.12,North,0,0.0,0.0,31,0.00,,---,0.00,VWS V14.00,2013-02-01 01:37:00,
2013-01-31 20:43:00,33.1,5.8,29.12,North,0,0.0,0.0,31,0.00,,---,0.00,VWS V14.00,2013-02-01 01:43:00,
2013-01-31 20:48:00,33.1,5.8,29.12,North,0,0.0,0.0,31,0.00,,---,0.00,VWS V14.00,2013-02-01 01:48:00,
2013-01-31 20:54:00,33.3,5.9,29.12,North,0,0.0,0.0,31,0.00,,---,0.00,VWS V14.00,2013-02-01 01:54:00,
2013-01-31 20:59:00,33.3,5.9,29.12,North,0,0.0,0.0,31,0.00,,---,0.00,VWS V14.00,2013-02-01 01:59:00,
2013-01-31 21:04:00,33.3,5.9,29.12,North,0,0.0,0.0,31,0.00,,---,0.00,VWS V14.00,2013-02-01 02:04:00,
2013-01-31 21:09:00,33.3,5.9,29.12,North,0,0.0,0.0,31,0.00,,---,0.00,VWS V14.00,2013-02-01 02:09:00,
2013-01-31 21:15:00,33.3,6.6,29.12,North,0,0.0,0.0,32,0.00,,---,0.00,VWS V14.00,2013-02-01 02:15:00,
2013-01-31 21:20:00,33.3,6.6,29.15,North,0,0.0,0.0,32,0.00,,---,0.00,VWS V14.00,2013-02-01 02:20:00,
2013-01-31 21:25:00,33.1,6.4,29.15,North,0,0.0,0.0,32,0.00,,---,0.00,VWS V14.00,2013-02-01 02:25:00,
2013-01-31 21:31:00,33.1,6.4,29.15,North,0,0.0,0.0,32,0.00,,---,0.00,VWS V14.00,2013-02-01 02:31:00,
2013-01-31 21:36:00,33.1,6.4,29.15,North,0,0.0,0.0,32,0.00,,---,0.00,VWS V14.00,2013-02-01 02:36:00,
2013-01-31 21:41:00,32.9,6.3,29.15,North,0,0.0,0.0,32,0.00,,---,0.00,VWS V14.00,2013-02-01 02:41:00,
2013-01-31 21:46:00,32.7,6.1,29.15,North,0,0.0,0.0,32,0.00,,---,0.00,VWS V14.00,2013-02-01 02:46:00,
2013-01-31 21:52:00,32.5,6.6,29.15,North,0,0.0,0.0,33,0.00,,---,0.00,VWS V14.00,2013-02-01 02:52:00,
2013-01-31 21:58:00,32.0,6.2,29.15,North,0,0.0,0.0,33,0.00,,---,0.00,VWS V14.00,2013-02-01 02:58:00,
2013-01-31 22:03:00,31.8,6.0,29.15,North,0,0.0,0.0,33,0.00,,---,0.00,VWS V14.00,2013-02-01 03:03:00,
2013-01-31 22:08:00,31.6,5.8,29.15,North,0,0.0,0.0,33,0.00,,---,0.00,VWS V14.00,2013-02-01 03:08:00,
2013-01-31 22:13:00,31.8,5.3,29.15,North,0,0.0,0.0,32,0.00,,---,0.00,VWS V14.00,2013-02-01 03:13:00,
2013-01-31 22:18:00,31.8,6.0,29.15,North,0,0.0,0.0,33,0.00,,---,0.00,VWS V14.00,2013-02-01 03:18:00,
2013-01-31 22:24:00,31.6,5.8,29.15,North,0,0.0,0.0,33,0.00,,---,0.00,VWS V14.00,2013-02-01 03:24:00,
2013-01-31 22:29:00,31.6,5.2,29.15,North,0,0.0,0.0,32,0.00,,---,0.00,VWS V14.00,2013-02-01 03:29:00,
2013-01-31 22:34:00,31.6,5.2,29.15,North,0,0.0,0.0,32,0.00,,---,0.00,VWS V14.00,2013-02-01 03:34:00,
2013-01-31 22:39:00,31.3,4.9,29.15,North,0,0.0,0.0,32,0.00,,---,0.00,VWS V14.00,2013-02-01 03:39:00,
2013-01-31 22:44:00,31.1,4.7,29.15,North,0,0.0,0.0,32,0.00,,---,0.00,VWS V14.00,2013-02-01 03:44:00,
2013-01-31 22:50:00,30.7,4.4,29.18,North,0,0.0,0.0,32,0.00,,---,0.00,VWS V14.00,2013-02-01 03:50:00,
2013-01-31 22:55:00,30.7,4.4,29.18,North,0,0.0,0.0,32,0.00,,---,0.00,VWS V14.00,2013-02-01 03:55:00,
2013-01-31 23:01:00,30.4,4.1,29.18,North,0,0.0,0.0,32,0.00,,---,0.00,VWS V14.00,2013-02-01 04:01:00,
2013-01-31 23:06:00,30.2,4.6,29.18,North,0,0.0,0.0,33,0.00,,---,0.00,VWS V14.00,2013-02-01 04:06:00,
2013-01-31 23:11:00,30.2,4.6,29.18,North,0,0.0,0.0,33,0.00,,---,0.00,VWS V14.00,2013-02-01 04:11:00,
2013-01-31 23:16:00,30.2,4.6,29.18,North,0,0.0,0.0,33,0.00,,---,0.00,VWS V14.00,2013-02-01 04:16:00,
2013-01-31 23:21:00,29.8,4.2,29.18,North,0,0.0,0.0,33,0.00,,---,0.00,VWS V14.00,2013-02-01 04:21:00,
2013-01-31 23:27:00,29.5,3.9,29.18,North,0,0.0,0.0,33,0.00,,---,0.00,VWS V14.00,2013-02-01 04:27:00,
2013-01-31 23:33:00,29.5,3.9,29.18,North,0,0.0,0.0,33,0.00,,---,0.00,VWS V14.00,2013-02-01 04:33:00,
2013-01-31 23:38:00,29.7,4.1,29.18,North,0,0.0,0.0,33,0.00,,---,0.00,VWS V14.00,2013-02-01 04:38:00,
2013-01-31 23:43:00,29.8,4.2,29.18,North,0,0.0,0.0,33,0.00,,---,0.00,VWS V14.00,2013-02-01 04:43:00,
2013-01-31 23:48:00,29.7,4.1,29.18,North,0,0.0,0.0,33,0.00,,---,0.00,VWS V14.00,2013-02-01 04:48:00,
2013-01-31 23:53:00,29.5,3.9,29.18,North,0,0.0,0.0,33,0.00,,---,0.00,VWS V14.00,2013-02-01 04:53:00,
2013-01-31 23:59:00,28.9,3.5,29.18,North,0,0.0,0.0,33,0.00,,---,0.00,VWS V14.00,2013-02-01 04:59:00,